Regional Weather Roundup
Issued by NWS

Home | Current Version | Previous Version | Graphics & Text | Print | Product List | Glossary Off
Versions: 1 2 3 4 5 6 7 8 9 10 11 12 13 14 15 16 17 18 19 20 21 22 23 24 25 26 27 28 29 30 31 32 33 34 35 36 37 38 39 40 41 42 43 44 45 46 47 48 49 50

000
ASUS43 KLSX 181610
RWRMO

WEATHER SUMMARY FOR MISSOURI
NATIONAL WEATHER SERVICE SPRINGFIELD MO
1000 AM CST WED JAN 18 2017

NOTE: "FAIR" INDICATES FEW OR NO CLOUDS BELOW 12,000 FEET WITH NO
       SIGNIFICANT WEATHER AND/OR OBSTRUCTIONS TO VISIBILITY.
       CURRENT SKY AND/OR WEATHER CONDITIONS ARE NOT AVAILABLE FOR
       CHILLICOTHE AND FARMINGTON.

MOZ001>031-035>038-043-044-053-054-181700-
...NORTHERN AND WESTERN MISSOURI...

CITY           SKY/WX    TMP DP  RH WIND       PRES   REMARKS
KANSAS CTY INT FOG       32  30  92 S10       30.14R VSB 1/4 WCI  24
KANSAS C DTWN  PTSUNNY   34  34 100 S6        30.17S WCI  29
LEE`S SUMMIT   FOG       34  34 100 S8        30.17S VSB 1/4 WCI  27
ST JOSEPH      SUNNY     32  32 100 SE3       30.14S
CHILLICOTHE      N/A     32  32 100 S8        30.19S WCI  25
KIRKSVILLE     CLOUDY    36  35  96 S9        30.18S FOG     WCI  29

$$
MOZ066>068-077>081-088>096-101>105-181700-
...SOUTHWEST MISSOURI...

CITY           SKY/WX    TMP DP  RH WIND       PRES   REMARKS
SPRINGFIELD    CLOUDY    38  36  92 SE5       30.18S FOG
JOPLIN         PTSUNNY   39  39 100 SE7       30.18F
BRANSON        FOG       37  37 100 E8        30.19S VSB 1/16

$$
MOZ032>034-039>042-045>050-055>058-069>072-181700-
...CENTRAL MISSOURI...

CITY           SKY/WX    TMP DP  RH WIND       PRES   REMARKS
COLUMBIA       CLOUDY    37  33  85 S6        30.21F
JEFFERSON CITY CLOUDY    37  32  82 SE7       30.23S
ROLLA          MOSUNNY   38  34  85 S6        30.20S
SEDALIA        CLOUDY    37  36  96 S8        30.21S
WHITEMAN AFB   CLOUDY    37  37 100 SW7       30.18S FOG
WARRENSBURG    CLOUDY    36  36 100 S7        30.19S FOG     WCI  30
OSAGE BEACH    CLOUDY    37  34  89 S5        30.23S

$$
MOZ051-052-059>065-181700-
...EAST CENTRAL MISSOURI...

CITY           SKY/WX    TMP DP  RH WIND       PRES   REMARKS
ST LOUIS INTL  MOSUNNY   41  31  67 S5        30.24F
SPIRIT OF STL  PTSUNNY   40  33  76 W7        30.25S
ST CHARLES     CLOUDY    38  32  79 S5        30.25S

$$
MOZ072>076-082>087-097>100-106>115-181700-
...SOUTH CENTRAL AND SOUTHEAST MISSOURI...

CITY           SKY/WX    TMP DP  RH WIND       PRES   REMARKS
CAPE GIRARDEAU CLOUDY    41  35  79 E8        30.26R
FARMINGTON     CLOUDY    38  33  82 CALM      30.24S
POPLAR BLUFF   CLOUDY    42  38  85 VRB3      30.27R
WEST PLAINS    CLOUDY    37  36  96 SE6       30.22F FOG

$$




USA.gov is the U.S. government's official web portal to all federal, state and local government web resources and services.